Back to catalog

COSMOS 2251 DEB

AliveLEO
NORAD 33980·DEBRIS·🇷🇺 Russia

Launched Jun 16, 1993 from Plesetsk Cosmodrome

Loading…

Next Passes (next 24 hours)

TLE

FreshSource: Space-Track

Epoch: Sep 14, 2026, 09:31 UTC

1 33980U 93036FP  26257.39690025  .00001779  00000-0  37421-3 0  9994
2 33980  74.0166 253.3040 0029938 322.3998 108.3610 14.60053116928165

Track COSMOS 2251 DEB in real time with AllMySat

Download on the App Store